When you browse on this site, cookies collect data to enhance your experience and personalize the content and advertising you see.
Visit our Privacy Policy to learn more. By continuing to use the site, you agree to this use of cookies and data.
  • In United Kingdom
  • List of Countries
  • For 7 days
  • Water Temperature
  • Weather Map
  • Weather Widgets
  • user-avatar
    Login

    Hourly Weather Nottingham

    Today, 26 August, Monday

    Time Temperature Precipitation Wind Pressure Humidity
    00:00 +21°C° 0 mm 2 mps 758 mmHg 67%
    01:00 +20°C° 0 mm 2 mps 758 mmHg 70%
    02:00 +20°C° 0 mm 2 mps 758 mmHg 73%
    03:00 +20°C° 0 mm 1 mps 758 mmHg 76%
    04:00 +20°C° 0 mm 1 mps 758 mmHg 78%
    05:00 +20°C° 0 mm 1 mps 758 mmHg 80%
    06:00 +20°C° 0 mm 1 mps 758 mmHg 82%
    07:00 +21°C° 0 mm 1 mps 758 mmHg 77%
    08:00 +23°C° 0 mm 1 mps 758 mmHg 71%
    09:00 +25°C° 0 mm 1 mps 758 mmHg 65%
    10:00 +26°C° 0 mm 2 mps 757 mmHg 60%
    11:00 +27°C° 0 mm 2 mps 757 mmHg 56%
    12:00 +29°C° 0 mm 3 mps 757 mmHg 51%
    13:00 +29°C° 0 mm 3 mps 757 mmHg 50%
    14:00 +29°C° 0 mm 3 mps 757 mmHg 49%
    15:00 +30°C° 0 mm 3 mps 756 mmHg 48%
    16:00 +29°C° 0 mm 3 mps 756 mmHg 52%
    17:00 +28°C° 0 mm 2 mps 756 mmHg 56%
    18:00 +27°C° 0 mm 2 mps 756 mmHg 60%
    19:00 +26°C° 0 mm 1 mps 756 mmHg 63%
    20:00 +24°C° 0 mm 1 mps 756 mmHg 66%
    21:00 +23°C° 0 mm 1 mps 756 mmHg 70%
    22:00 +22°C° 0 mm 1 mps 756 mmHg 72%
    23:00 +22°C° 0 mm 1 mps 756 mmHg 74%

    Tomorrow, 27 August, Tuesday

    Time Temperature Precipitation Wind Pressure Humidity
    00:00 +19°C° 0 mm 0 mps 756 mmHg 76%
    01:00 +19°C° 0 mm 0 mps 756 mmHg 77%
    02:00 +18°C° 0 mm 0 mps 755 mmHg 79%
    03:00 +20°C° 0 mm 1 mps 755 mmHg 80%
    04:00 +20°C° 0 mm 1 mps 755 mmHg 82%
    05:00 +20°C° 0 mm 1 mps 755 mmHg 83%
    06:00 +19°C° 0 mm 2 mps 755 mmHg 84%
    07:00 +21°C° 0.1 mm 1 mps 755 mmHg 78%
    08:00 +22°C° 0.1 mm 1 mps 755 mmHg 72%
    09:00 +24°C° 0.1 mm 1 mps 755 mmHg 66%
    10:00 +25°C° 0.2 mm 1 mps 755 mmHg 63%
    11:00 +25°C° 0.2 mm 1 mps 755 mmHg 60%
    12:00 +26°C° 0.2 mm 1 mps 755 mmHg 57%
    13:00 +26°C° 0 mm 2 mps 754 mmHg 59%
    14:00 +26°C° 0 mm 2 mps 754 mmHg 60%
    15:00 +26°C° 0 mm 2 mps 754 mmHg 61%
    16:00 +25°C° 0.3 mm 2 mps 754 mmHg 67%
    17:00 +24°C° 0.3 mm 2 mps 753 mmHg 72%
    18:00 +23°C° 0.3 mm 2 mps 753 mmHg 78%
    19:00 +21°C° 0.3 mm 2 mps 754 mmHg 79%
    20:00 +20°C° 0.3 mm 2 mps 754 mmHg 80%
    21:00 +20°C° 0.3 mm 2 mps 754 mmHg 81%
    22:00 +19°C° 0.1 mm 2 mps 754 mmHg 82%
    23:00 +20°C° 0.1 mm 1 mps 754 mmHg 83%

    Day after tomorrow, 28 August, Wednesday

    Time Temperature Precipitation Wind Pressure Humidity
    00:00 +20°C° 0.1 mm 1 mps 754 mmHg 84%
    01:00 +19°C° 0 mm 1 mps 754 mmHg 84%
    02:00 +18°C° 0 mm 2 mps 754 mmHg 84%
    03:00 +17°C° 0 mm 2 mps 753 mmHg 84%
    04:00 +17°C° 0 mm 2 mps 753 mmHg 83%
    05:00 +17°C° 0 mm 2 mps 753 mmHg 82%
    06:00 +17°C° 0 mm 2 mps 753 mmHg 81%
    07:00 +17°C° 0 mm 2 mps 753 mmHg 79%
    08:00 +17°C° 0 mm 2 mps 753 mmHg 77%
    09:00 +17°C° 0 mm 2 mps 753 mmHg 76%
    10:00 +17°C° 0.1 mm 2 mps 753 mmHg 78%
    11:00 +17°C° 0.1 mm 2 mps 753 mmHg 80%
    12:00 +16°C° 0.1 mm 2 mps 753 mmHg 82%
    13:00 +17°C° 0 mm 3 mps 753 mmHg 78%
    14:00 +18°C° 0 mm 3 mps 753 mmHg 74%
    15:00 +19°C° 0 mm 4 mps 753 mmHg 69%
    16:00 +19°C° 0 mm 3 mps 752 mmHg 72%
    17:00 +18°C° 0 mm 3 mps 752 mmHg 74%
    18:00 +17°C° 0 mm 3 mps 752 mmHg 76%
    19:00 +17°C° 0.1 mm 3 mps 752 mmHg 77%
    20:00 +17°C° 0.1 mm 3 mps 752 mmHg 79%
    21:00 +16°C° 0.1 mm 3 mps 752 mmHg 80%
    22:00 +16°C° 0.1 mm 3 mps 752 mmHg 82%
    23:00 +16°C° 0.1 mm 2 mps 752 mmHg 85%

    29 August, Thursday

    Time Temperature Precipitation Wind Pressure Humidity
    00:00 +16°C° 0.1 mm 2 mps 752 mmHg 88%
    01:00 +14°C° 0.1 mm 3 mps 753 mmHg 87%
    02:00 +14°C° 0.1 mm 4 mps 753 mmHg 86%
    03:00 +14°C° 0.1 mm 4 mps 753 mmHg 85%
    04:00 +13°C° 0 mm 4 mps 754 mmHg 83%
    05:00 +12°C° 0 mm 4 mps 754 mmHg 81%
    06:00 +11°C° 0 mm 4 mps 755 mmHg 79%
    07:00 +13°C° 0 mm 4 mps 755 mmHg 75%
    08:00 +14°C° 0 mm 5 mps 756 mmHg 71%
    09:00 +15°C° 0 mm 5 mps 757 mmHg 68%
    10:00 +16°C° 0 mm 5 mps 757 mmHg 63%
    11:00 +17°C° 0 mm 5 mps 757 mmHg 58%
    12:00 +19°C° 0 mm 5 mps 758 mmHg 53%
    13:00 +20°C° 0 mm 5 mps 758 mmHg 52%
    14:00 +20°C° 0 mm 5 mps 758 mmHg 51%
    15:00 +20°C° 0 mm 5 mps 758 mmHg 51%
    16:00 +19°C° 0 mm 5 mps 758 mmHg 57%
    17:00 +19°C° 0 mm 4 mps 758 mmHg 63%
    18:00 +18°C° 0 mm 4 mps 758 mmHg 69%
    19:00 +15°C° 0 mm 4 mps 758 mmHg 71%
    20:00 +14°C° 0 mm 3 mps 759 mmHg 74%
    21:00 +13°C° 0 mm 3 mps 759 mmHg 76%
    22:00 +12°C° 0 mm 4 mps 759 mmHg 79%
    23:00 +12°C° 0 mm 4 mps 759 mmHg 81%

    30 August, Friday

    Time Temperature Precipitation Wind Pressure Humidity
    00:00 +12°C° 0 mm 4 mps 759 mmHg 84%
    01:00 +12°C° 0 mm 4 mps 759 mmHg 85%
    02:00 +11°C° 0 mm 4 mps 759 mmHg 87%
    03:00 +11°C° 0 mm 4 mps 759 mmHg 88%
    04:00 +11°C° 0 mm 4 mps 759 mmHg 88%
    05:00 +11°C° 0 mm 4 mps 759 mmHg 89%
    06:00 +12°C° 0 mm 4 mps 759 mmHg 89%
    07:00 +13°C° 0 mm 5 mps 759 mmHg 84%
    08:00 +14°C° 0 mm 5 mps 759 mmHg 79%
    09:00 +16°C° 0 mm 6 mps 759 mmHg 74%
    10:00 +17°C° 0 mm 6 mps 759 mmHg 73%
    11:00 +17°C° 0 mm 6 mps 758 mmHg 71%
    12:00 +19°C° 0 mm 6 mps 758 mmHg 69%
    13:00 +19°C° 0 mm 6 mps 758 mmHg 68%
    14:00 +20°C° 0 mm 6 mps 757 mmHg 67%
    15:00 +20°C° 0 mm 6 mps 757 mmHg 67%
    16:00 +20°C° 0 mm 6 mps 757 mmHg 69%
    17:00 +19°C° 0 mm 5 mps 757 mmHg 71%
    18:00 +19°C° 0 mm 5 mps 756 mmHg 73%
    19:00 +17°C° 0 mm 5 mps 757 mmHg 75%
    20:00 +16°C° 0 mm 5 mps 757 mmHg 77%
    21:00 +16°C° 0 mm 5 mps 757 mmHg 78%
    22:00 +15°C° 0 mm 5 mps 756 mmHg 79%
    23:00 +15°C° 0 mm 6 mps 756 mmHg 81%

    31 August, Saturday

    Time Temperature Precipitation Wind Pressure Humidity
    00:00 +15°C° 0 mm 6 mps 756 mmHg 82%
    01:00 +15°C° 0 mm 6 mps 756 mmHg 82%
    02:00 +15°C° 0 mm 6 mps 755 mmHg 83%
    03:00 +15°C° 0 mm 6 mps 755 mmHg 83%
    04:00 +15°C° 0 mm 6 mps 755 mmHg 83%
    05:00 +15°C° 0 mm 6 mps 755 mmHg 83%
    06:00 +15°C° 0 mm 5 mps 755 mmHg 83%
    07:00 +15°C° 0 mm 5 mps 755 mmHg 83%
    08:00 +15°C° 0 mm 5 mps 755 mmHg 82%
    09:00 +16°C° 0 mm 5 mps 756 mmHg 82%
    10:00 +16°C° 0.1 mm 5 mps 756 mmHg 82%
    11:00 +16°C° 0.1 mm 5 mps 756 mmHg 83%
    12:00 +16°C° 0.1 mm 5 mps 756 mmHg 83%
    13:00 +17°C° 0.1 mm 4 mps 756 mmHg 84%
    14:00 +17°C° 0.1 mm 4 mps 756 mmHg 85%
    15:00 +17°C° 0.1 mm 3 mps 756 mmHg 86%
    16:00 +17°C° 0.2 mm 3 mps 756 mmHg 86%
    17:00 +16°C° 0.2 mm 2 mps 756 mmHg 86%
    18:00 +16°C° 0.2 mm 2 mps 756 mmHg 87%
    19:00 +15°C° 0 mm 2 mps 756 mmHg 85%
    20:00 +15°C° 0 mm 2 mps 757 mmHg 84%
    21:00 +14°C° 0 mm 2 mps 757 mmHg 82%
    22:00 +13°C° 0 mm 2 mps 757 mmHg 82%
    23:00 +13°C° 0 mm 2 mps 757 mmHg 82%
    Show more